Terug naar catalogus

CZ-4B R/B

ActiefSSO
NORAD 25732·ROCKET BODY·🇨🇳 China

Gelanceerd May 10, 1999 vanaf Taiyuan Satellite Launch Center

Loading…

Volgende Passages (komende 24 uur)

TLE

VersSource: Space-Track

Epoch: Sep 14, 2026, 14:38 UTC

1 25732U 99025C   26257.60995797  .00000033  00000-0  36317-4 0  9998
2 25732  98.6411 297.1666 0037519 159.6932 353.3695 14.18295328414946

Volg CZ-4B R/B in realtime met AllMySat

Download on the App Store